Regional Weather Roundup
Issued by NWS

Home | Current Version | Previous Version | Graphics & Text | Print | Product List | Glossary On
Versions: 1 2 3 4 5 6 7 8 9 10 11 12 13 14 15 16 17 18 19 20 21 22 23 24 25 26 27 28 29 30 31 32 33 34 35 36 37 38 39 40 41 42 43 44 45 46 47 48 49 50
000
ASUS43 KIND 291509
RWRIN

WEATHER ROUNDUP FOR INDIANA
NATIONAL WEATHER SERVICE INDIANAPOLIS IN
1100 AM EDT THU SEP 29 2016

NOTE: "FAIR" INDICATES FEW OR NO CLOUDS BELOW 12,000 FEET WITH NO
SIGNIFICANT WEATHER AND/OR OBSTRUCTIONS TO VISIBILITY.

* - STATION DOES NOT REPORT WEATHER SUCH AS PRECIPITATION OR FOG.

+ - STATION NOT QUALITY CONTROLLED BY THE NATIONAL WEATHER SERVICE.
    USE DATA WITH CAUTION...ESPECIALLY DEWPOINT AND RELATIVE
    HUMIDITY OBSERVATIONS.

INZ001>003-010>013-019-020-291600-
NORTHWEST INDIANA

CITY           SKY/WX    TMP DP  RH WIND       PRES   REMARKS
GARY /AIRPORT/ CLOUDY    63  61  94 NE15G36   30.15R
KNOX *+        CLOUDY    59  43  55 NE6       30.10S
LA PORTE +     CLOUDY    61  61 100 NE6       30.13R
MICHIGAN CITY+ CLOUDY    59  59 100 CALM      30.14R
MONTICELLO +   CLOUDY    60  52  74 NE7       30.10R
RENSSELAER +   CLOUDY    63  55  77 NE9       30.12R
VALPARAISO     CLOUDY    59  57  93 NE6       30.13R

$$

LMZ046-743>745-291600-
SOUTHERN LAKE MICHIGAN

STATION/POSITION TIME  TEMP    WIND        PRES    WAVE
                       AIR SEA DIR/SP/G            HT
                 (UTC) (F)     (DEG/KT/KT) (MB)    (FT)
BURNS HARBOR     1440   62      50/ 23/ 25 1020.3R
MICHIGAN CITY    1440   60      20/ 19/ 20   N/A
5NW MICH CITY    1500   61 65   40/ 17/ 21   N/A     8

$$

INZ004-005-014>016-021>024-291600-
NORTH CENTRAL INDIANA

CITY           SKY/WX    TMP DP  RH WIND       PRES   REMARKS
GOSHEN         CLOUDY    61  57  87 NE6       30.11R
LOGANSPORT +   CLOUDY    59  55  88 NE6       30.11R
PERU/GRISSOM   CLOUDY    61  57  88 E12       30.09R
ROCHESTER +    CLOUDY    63  59  88 E7        30.11R
SOUTH BEND     CLOUDY    60  58  92 NE9       30.12S
WARSAW +       CLOUDY    61  52  72 NE6       30.11R

$$

INZ006>009-017-018-025>027-291600-
NORTHEAST INDIANA

CITY           SKY/WX    TMP DP  RH WIND       PRES   REMARKS
ANGOLA *+        N/A     61  48  63 NE5       30.11R
AUBURN +       CLOUDY    63  55  77 E6        30.11R
FORT WAYNE     CLOUDY    60  55  83 E8        30.11R
HUNTINGTON +   CLOUDY    58  56  92 E6        30.10S
KENDALLVILLE + CLOUDY    60  57  89 E7        30.11R

$$

INZ028-029-035-036-043>045-051>053-291600-
WEST CENTRAL INDIANA

CITY           SKY/WX    TMP DP  RH WIND       PRES   REMARKS
CRAWFORDSVL +  CLOUDY    55  55 100 N5        30.10R
GREENCASTLE +  SUNNY     59  55  88 N5        30.09R
LAFAYETTE      CLOUDY    59  56  89 NE9       30.10R
TERRE HAUTE    PTSUNNY   61  53  75 N9        30.09R

$$

INZ030>032-037>040-046>048-054>057-064-065-291600-
CENTRAL INDIANA

CITY           SKY/WX    TMP DP  RH WIND       PRES   REMARKS
ANDERSON       CLOUDY    57  55  94 N6        30.09R FOG
FISHERS *+     CLOUDY    57  55  94 NE5       30.09R
FRANKFORT +    CLOUDY    63  57  82 NE6       30.11R
GREENWOOD *+   CLOUDY    57  55  94 NE6       30.09R
INDIANAPOLIS   PTSUNNY   59  52  77 NE7       30.08R
-EAGLE CREEK   CLOUDY    60  51  72 NE8       30.08R
KOKOMO *+      CLOUDY    59  54  82 E10       30.10R
MARION +       CLOUDY    58  54  85 NE9       30.11R
MT COMFORT *+  CLOUDY    55  52  88 NE6       30.09R
SHELBYVILLE    CLOUDY    58  52  80 NE8       30.08R
ZIONSVILLE +   CLOUDY    57  54  89 NE6       30.10R

$$

INZ033-034-041-042-049-050-058-059-291600-
EAST CENTRAL INDIANA

CITY           SKY/WX    TMP DP  RH WIND       PRES   REMARKS
MUNCIE         PTSUNNY   61  55  81 NE6       30.09R

$$

INZ060-061-067>069-081>083-085>088-291600-
SOUTHWEST INDIANA

CITY           SKY/WX    TMP DP  RH WIND       PRES   REMARKS
EVANSVILLE     CLOUDY    57  54  89 NW3       30.09R FOG
HUNTINGBURG *+   N/A     55  52  88 CALM      30.09R
WASHINGTON +   CLOUDY    57  56  95 MISG      30.08R

$$

INZ062-063-066-070>080-084-089>092-291600-
SOUTH CENTRAL AND SOUTHEAST INDIANA

CITY           SKY/WX    TMP DP  RH WIND       PRES   REMARKS
BLOOMINGTON    CLOUDY    59  52  77 NE7       30.07R
MADISON *+     CLOUDY    57  54  88 CALM      30.09R
NORTH VERNON + CLOUDY   N/A N/A N/A CALM      30.08R
SEYMOUR +      CLOUDY    59  54  82 CALM      30.08R

$$





USA.gov is the U.S. government's official web portal to all federal, state and local government web resources and services.